QPF
0.00 0.00 0.00 0.00 0.00 0.00 0.00 0.00 0.00 0.00 0.00 0.00 0.00 0.00 0.00 0.00 0.00 0.00 0.00 0.00 0.00 0.00 0.00 0.00 0.00 0.00 0.01 0.00 0.00 0.00 0.00 0.00
0.00 0.00 0.00 0.00 0.00 0.00 0.00 0.00 0.00 0.00 0.00 0.00 0.00 0.00 0.00 0.00 0.00 0.00 0.00 0.00 0.00 0.00 0.00 0.00 0.00 0.00 0.00 0.00 0.00 0.00 0.00 0.00
0.00 0.00 0.00 0.00 0.00 0.00 0.00 0.00 0.00 0.00 0.00 0.00 0.00 0.00 0.00 0.00 0.00 0.00 0.00 0.00 0.00 0.00 0.00 0.00 0.00 0.01 0.00 0.00 0.00 0.00 0.01 0.01
0.00 0.00 0.00 0.00 0.00 0.00 0.00 0.00 0.00 0.00 0.00 0.00 0.00 0.00 0.00 0.00 0.00 0.00 0.00 0.01 0.01 0.00 0.00 0.00 0.00 0.01 0.01 0.01 0.00 0.00 0.00 0.01
0.00 0.00 0.00 0.00 0.00 0.00 0.00 0.00 0.00 0.00 0.00 0.00 0.00 0.00 0.00 0.00 0.00 0.00 0.00 0.02 0.03 0.00 0.00 0.00 0.01 0.01 0.02 0.00 0.01 0.01 0.00 0.00
0.00 0.00 0.00 0.00 0.00 0.00 0.00 0.00 0.00 0.00 0.00 0.00 0.00 0.00 0.00 0.00 0.00 0.00 0.01 0.01 0.01 0.01 0.02 0.01 0.11 0.10 0.07 0.04 0.02 0.01 0.01 0.00
0.00 0.00 0.00 0.00 0.00 0.00 0.00 0.00 0.00 0.00 0.00 0.00 0.00 0.00 0.00 0.00 0.00 0.00 0.03 0.03 0.02 0.02 0.12 0.03 0.06 0.21 0.21 0.21 0.21 0.07 0.01 0.01
0.00 0.00 0.00 0.00 0.00 0.00 0.00 0.00 0.00 0.00 0.00 0.00 0.00 0.00 0.00 0.00 0.00 0.02 0.06 0.05 0.04 0.02 0.05 0.02 0.01 0.02 0.01 0.02 0.06 0.09 0.04 0.01
0.00 0.00 0.00 0.00 0.00 0.00 0.00 0.00 0.00 0.00 0.00 0.00 0.00 0.00 0.00 0.00 0.00 0.05 0.06 0.01 0.01 0.02 0.05 0.06 0.05 0.04 0.01 0.01 0.01 0.02 0.02 0.01
0.00 0.00 0.00 0.00 0.00 0.00 0.00 0.00 0.00 0.00 0.00 0.00 0.00 0.01 0.02 0.02 0.03 0.09 0.07 0.04 0.02 0.03 0.04 0.09 0.07 0.07 0.04 0.04 0.03 0.03 0.02 0.01
0.00 0.00 0.00 0.00 0.00 0.00 0.00 0.00 0.00 0.00 0.00 0.01 0.02 0.05 0.14 0.19 0.13 0.08 0.03 0.03 0.03 0.03 0.04 0.05 0.04 0.11 0.16 0.06 0.07 0.07 0.04 0.01
0.00 0.00 0.00 0.00 0.00 0.00 0.00 0.00 0.00 0.00 0.00 0.02 0.04 0.04 0.11 0.12 0.13 0.13 0.08 0.05 0.06 0.07 0.06 0.03 0.01 0.05 0.24 0.33 0.25 0.19 0.07 0.01
0.00 0.00 0.00 0.00 0.00 0.00 0.00 0.00 0.00 0.00 0.00 0.00 0.02 0.06 0.07 0.09 0.10 0.12 0.07 0.05 0.10 0.10 0.01 0.00 0.01 0.06 0.16 0.55 0.56 0.40 0.12 0.02
0.00 0.00 0.00 0.00 0.00 0.00 0.00 0.00 0.01 0.01 0.01 0.01 0.02 0.05 0.09 0.10 0.11 0.13 0.12 0.09 0.05 0.08 0.04 0.01 0.00 0.02 0.04 0.07 0.30 0.29 0.10 0.04
0.00 0.00 0.00 0.00 0.00 0.00 0.00 0.00 0.03 0.14 0.22 0.15 0.08 0.10 0.12 0.17 0.17 0.24 0.24 0.23 0.07 0.06 0.05 0.01 0.00 0.02 0.04 0.03 0.02 0.05 0.04 0.02
0.00 0.00 0.00 0.00 0.00 0.00 0.00 0.00 0.01 0.02 0.10 0.25 0.23 0.16 0.26 0.39 0.63 0.58 0.25 0.33 0.17 0.08 0.04 0.01 0.01 0.00 0.00 0.00 0.01 0.01 0.01 0.02
0.00 0.00 0.00 0.00 0.00 0.00 0.00 0.00 0.00 0.02 0.02 0.03 0.09 0.08 0.09 0.14 0.23 0.36 0.25 0.27 0.27 0.08 0.05 0.03 0.00 0.00 0.01 0.01 0.01 0.00 0.00 0.01
0.00 0.00 0.00 0.00 0.00 0.00 0.00 0.00 0.00 0.02 0.03 0.02 0.03 0.13 0.17 0.12 0.07 0.10 0.19 0.16 0.27 0.35 0.15 0.04 0.02 0.00 0.01 0.01 0.01 0.00 0.00 0.00
0.02 0.00 0.01 0.01 0.00 0.00 0.00 0.00 0.00 0.01 0.03 0.04 0.03 0.08 0.14 0.14 0.11 0.05 0.05 0.19 0.36 0.51 0.32 0.14 0.05 0.01 0.02 0.01 0.01 0.00 0.00 0.00
MSLP
1004.63 1005.23 1005.71 1005.96 1006.03 1006.19 1006.17 1006.23 1006.31 1006.27 1006.15 1005.82 1005.36 1004.72 1004.11 1004.10 1003.97 1004.02 1004.40 1005.30 1005.63 1006.22 1006.77 1007.29 1007.88 1008.68 1009.12 1009.82 1010.30 1010.71 1010.84 1010.87
1004.77 1005.69 1005.95 1006.29 1006.44 1006.58 1006.63 1006.56 1006.49 1006.27 1005.89 1005.40 1004.72 1004.03 1003.36 1003.13 1003.29 1003.54 1003.72 1004.45 1005.10 1005.57 1006.16 1006.85 1007.07 1007.83 1008.31 1009.26 1009.86 1010.29 1010.64 1010.87
1005.13 1005.76 1006.17 1006.66 1007.03 1007.29 1007.39 1007.15 1006.81 1006.67 1006.29 1005.75 1005.20 1004.37 1003.34 1002.44 1002.29 1002.85 1003.33 1003.71 1004.46 1005.15 1005.64 1006.10 1006.52 1007.04 1007.76 1008.65 1008.91 1009.70 1010.38 1010.75
1005.37 1005.85 1006.36 1006.90 1007.28 1007.84 1007.95 1007.88 1007.65 1007.08 1006.74 1006.25 1005.43 1004.50 1003.71 1002.87 1001.83 1001.86 1002.56 1002.89 1003.66 1004.26 1004.13 1006.03 1005.53 1006.20 1007.10 1007.77 1008.32 1008.84 1009.47 1010.22
1005.74 1006.22 1006.55 1007.09 1007.45 1008.05 1008.28 1008.32 1008.11 1007.59 1007.14 1006.68 1006.10 1004.84 1003.08 1001.54 1001.04 1000.62 1001.68 1002.25 1002.82 1003.48 1003.79 1004.88 1005.08 1005.49 1006.46 1007.00 1007.40 1008.27 1008.71 1009.07
1006.27 1006.77 1007.11 1007.40 1007.83 1008.23 1008.44 1008.56 1008.26 1007.81 1007.59 1007.26 1006.58 1005.52 1004.09 1002.27 1000.86 999.46 999.93 1001.07 1001.78 1002.62 1003.45 1003.90 1004.13 1005.23 1005.84 1006.26 1007.30 1007.91 1007.99 1008.45
1006.80 1007.34 1007.82 1008.01 1008.39 1008.77 1008.91 1008.79 1008.49 1008.17 1008.05 1007.57 1006.69 1005.63 1004.50 1002.62 1000.56 999.21 998.82 1000.02 1001.09 1001.98 1002.93 1003.35 1003.71 1004.18 1004.71 1005.04 1005.28 1007.96 1007.11 1007.04
1007.61 1008.01 1008.30 1008.61 1008.81 1008.98 1009.25 1009.30 1008.78 1008.34 1008.02 1007.36 1006.49 1005.32 1004.09 1002.67 1000.95 999.25 998.12 999.67 1000.49 1001.29 1002.26 1002.68 1002.97 1003.46 1003.80 1003.46 1003.03 1005.70 1006.58 1006.40
1008.21 1008.47 1008.79 1009.11 1009.20 1009.41 1009.68 1009.40 1008.72 1008.37 1007.88 1006.87 1005.79 1004.58 1003.15 1001.81 1000.34 998.91 998.34 998.62 999.52 1000.66 1001.52 1002.00 1002.56 1003.13 1003.40 1003.92 1003.75 1005.04 1005.57 1006.13
1008.61 1008.91 1009.32 1009.55 1009.65 1009.76 1009.95 1009.50 1008.89 1008.40 1007.58 1006.26 1005.13 1003.48 1001.99 1000.14 998.73 997.99 997.88 998.05 998.81 999.77 1000.73 1001.36 1001.68 1002.14 1002.66 1003.17 1003.84 1004.89 1005.31 1005.49
1008.95 1009.18 1009.47 1009.79 1010.05 1010.06 1010.22 1010.02 1009.42 1008.66 1007.61 1006.21 1004.81 1002.99 1001.20 998.74 997.50 997.24 997.23 997.42 998.15 998.76 999.73 1000.48 1001.03 1001.69 1001.97 1002.56 1003.72 1004.42 1004.71 1004.60
1009.67 1009.67 1009.97 1010.31 1010.54 1010.46 1010.46 1010.56 1009.61 1008.77 1007.70 1006.17 1004.65 1003.05 1001.54 1000.03 997.95 997.31 996.75 996.92 997.26 997.94 998.59 999.68 1000.31 1000.90 1001.53 1002.24 1002.46 1003.48 1004.13 1004.28
1010.26 1010.25 1010.59 1010.91 1011.13 1011.10 1010.85 1010.82 1010.09 1009.47 1008.41 1006.89 1005.24 1004.14 1002.85 1001.26 999.63 998.46 996.92 996.82 996.78 997.49 998.05 998.78 999.59 1000.60 1001.20 1001.91 1002.19 1003.27 1004.23 1004.05
1011.17 1011.17 1011.36 1011.71 1012.01 1011.85 1011.41 1011.05 1010.75 1009.96 1008.78 1007.49 1006.01 1005.31 1004.23 1002.82 1001.47 1000.24 998.17 997.63 997.76 997.96 997.97 998.59 999.17 999.84 1000.09 1000.54 1000.22 1003.49 1003.62 1003.77
1012.57 1012.51 1012.53 1012.76 1012.79 1012.50 1011.91 1011.53 1011.47 1010.69 1009.36 1008.46 1006.78 1006.83 1005.80 1004.20 1003.14 1002.31 1000.88 999.54 998.41 998.44 998.36 998.68 999.28 999.87 1000.45 1000.70 1001.31 1002.44 1003.02 1003.40
1013.94 1014.00 1013.98 1013.92 1013.73 1013.29 1012.76 1012.60 1012.08 1011.63 1010.29 1009.41 1008.48 1008.12 1006.97 1005.58 1003.72 1002.83 1002.35 1001.84 1000.39 999.58 999.00 999.36 999.66 1000.26 1000.61 1000.10 1000.47 1001.84 1002.72 1003.32
1015.47 1015.47 1015.38 1015.05 1014.74 1014.31 1013.90 1013.44 1012.94 1012.32 1011.32 1010.51 1010.13 1009.08 1007.67 1006.19 1005.66 1004.78 1003.07 1004.00 1002.28 1002.44 1001.81 1001.78 1001.86 1002.24 1001.85 1000.87 1000.58 1001.98 1002.81 1003.49
1016.73 1016.67 1016.51 1016.24 1015.91 1015.43 1014.71 1014.25 1013.81 1012.88 1012.26 1011.81 1011.09 1010.11 1008.95 1007.89 1007.22 1006.19 1004.73 1005.32 1004.30 1004.02 1004.42 1003.91 1003.73 1003.31 1002.68 1001.86 1002.10 1003.11 1004.04 1004.85
1017.91 1017.86 1017.52 1017.26 1017.02 1016.20 1015.55 1015.13 1014.41 1013.83 1013.26 1012.89 1012.15 1011.42 1010.50 1009.60 1008.92 1008.39 1007.93 1007.06 1006.73 1006.46 1006.03 1006.08 1005.84 1005.03 1004.59 1003.53 1003.51 1004.60 1005.48 1006.34
Thickness
5660 5657 5656 5656 5658 5657 5657 5659 5659 5660 5663 5667 5673 5680 5686 5688 5689 5691 5690 5684 5681 5678 5677 5676 5673 5665 5665 5659 5657 5655 5655 5657
5648 5643 5644 5642 5643 5643 5643 5645 5647 5651 5653 5657 5663 5669 5678 5682 5683 5682 5682 5678 5673 5670 5669 5668 5668 5663 5662 5655 5652 5649 5647 5650
5634 5632 5631 5629 5627 5626 5627 5630 5635 5636 5641 5647 5653 5658 5666 5674 5677 5674 5671 5669 5665 5662 5661 5660 5661 5659 5656 5650 5651 5644 5638 5640
5620 5619 5618 5616 5615 5612 5613 5615 5618 5623 5626 5632 5638 5645 5651 5654 5662 5663 5658 5660 5656 5656 5660 5647 5658 5655 5650 5647 5646 5642 5636 5634
5608 5607 5607 5604 5604 5601 5600 5601 5603 5608 5612 5614 5616 5624 5637 5648 5648 5654 5648 5647 5646 5644 5647 5649 5650 5650 5643 5643 5642 5636 5634 5633
5593 5593 5593 5593 5593 5591 5590 5589 5591 5593 5594 5594 5596 5601 5610 5622 5632 5643 5643 5640 5639 5637 5638 5639 5644 5638 5637 5636 5627 5627 5631 5630
5581 5580 5578 5578 5578 5577 5577 5578 5578 5579 5577 5577 5579 5583 5590 5604 5622 5633 5642 5636 5633 5631 5627 5630 5633 5634 5633 5636 5627 5614 5625 5633
5564 5563 5563 5563 5564 5565 5563 5561 5564 5565 5563 5563 5566 5573 5580 5589 5604 5622 5635 5628 5627 5626 5620 5623 5627 5628 5633 5636 5642 5623 5620 5627
5551 5552 5551 5550 5553 5552 5549 5551 5554 5552 5550 5554 5561 5568 5577 5588 5600 5615 5623 5628 5625 5620 5616 5618 5617 5618 5621 5620 5626 5621 5621 5618
5541 5541 5539 5539 5540 5540 5537 5540 5543 5539 5542 5549 5556 5567 5578 5595 5608 5616 5620 5623 5624 5619 5615 5613 5615 5617 5616 5619 5618 5614 5612 5613
5531 5531 5530 5529 5527 5529 5526 5526 5527 5527 5532 5541 5551 5563 5577 5601 5613 5614 5617 5620 5619 5619 5615 5613 5612 5611 5615 5615 5607 5607 5609 5615
5517 5518 5518 5516 5514 5516 5515 5510 5515 5518 5523 5534 5544 5556 5568 5580 5603 5608 5615 5618 5618 5618 5617 5611 5608 5611 5610 5606 5607 5598 5605 5610
5504 5506 5504 5502 5499 5500 5502 5498 5502 5504 5509 5521 5532 5541 5551 5564 5579 5593 5607 5611 5615 5615 5616 5612 5610 5606 5604 5598 5601 5599 5597 5606
5486 5489 5489 5486 5482 5484 5489 5488 5487 5493 5499 5508 5520 5526 5534 5544 5557 5569 5591 5598 5601 5603 5608 5607 5607 5607 5607 5608 5614 5591 5598 5602
5463 5467 5469 5468 5468 5470 5476 5477 5472 5477 5488 5494 5506 5506 5514 5526 5536 5546 5560 5576 5594 5594 5599 5601 5600 5600 5600 5602 5601 5597 5598 5599
5441 5443 5445 5448 5450 5454 5459 5459 5461 5461 5472 5478 5484 5486 5497 5508 5524 5528 5539 5548 5563 5578 5588 5589 5594 5594 5597 5604 5606 5599 5597 5595
5417 5419 5422 5426 5430 5435 5440 5443 5446 5451 5456 5461 5464 5473 5485 5499 5503 5511 5529 5526 5546 5547 5555 5561 5566 5569 5575 5587 5597 5593 5589 5585
5394 5397 5401 5405 5410 5417 5424 5429 5433 5440 5443 5446 5452 5459 5470 5479 5486 5497 5511 5511 5523 5527 5526 5536 5544 5554 5562 5573 5577 5573 5566 5564
5374 5377 5384 5388 5392 5402 5410 5416 5421 5426 5431 5432 5438 5445 5453 5460 5465 5472 5480 5491 5496 5500 5507 5512 5520 5531 5539 5552 5557 5552 5548 5545